Time,TemperatureF,DewpointF,PressureIn,WindDirection,WindDirectionDegrees,WindSpeedMPH,WindSpeedGustMPH,Humidity,HourlyPrecipIn,Conditions,Clouds,dailyrainin,SoftwareType,DateUTC
2013-04-26 00:01:00,30.4,24.3,29.54,SW,225,2.0,0.0,78,0.00,,,0.00,meteohub,2013-04-26 04:01:00,
2013-04-26 00:02:00,30.4,24.3,29.54,SW,225,0.0,0.0,78,0.00,,,0.00,meteohub,2013-04-26 04:02:00,
2013-04-26 00:07:00,30.2,24.3,29.54,SW,225,0.0,2.0,78,0.00,,,0.00,meteohub,2013-04-26 04:07:00,
2013-04-26 00:12:00,30.0,24.1,29.54,NNE,23,0.0,2.0,78,0.00,,,0.00,meteohub,2013-04-26 04:12:00,
2013-04-26 00:17:00,29.8,23.9,29.54,ESE,113,0.0,2.0,78,0.00,,,0.00,meteohub,2013-04-26 04:17:00,
2013-04-26 00:22:00,29.8,23.9,29.54,ENE,68,0.0,2.0,78,0.00,,,0.00,meteohub,2013-04-26 04:22:00,
2013-04-26 00:27:00,29.8,23.9,29.54,East,90,0.0,0.0,78,0.00,,,0.00,meteohub,2013-04-26 04:27:00,
2013-04-26 00:32:00,29.8,23.9,29.54,SE,135,0.0,0.0,78,0.00,,,0.00,meteohub,2013-04-26 04:32:00,
2013-04-26 00:37:00,29.8,23.9,29.54,SSW,203,0.0,0.0,78,0.00,,,0.00,meteohub,2013-04-26 04:37:00,
2013-04-26 00:42:00,29.7,23.7,29.54,SW,225,0.0,0.0,78,0.00,,,0.00,meteohub,2013-04-26 04:42:00,
2013-04-26 00:47:00,29.5,23.5,29.54,East,90,0.0,0.0,78,0.00,,,0.00,meteohub,2013-04-26 04:47:00,
2013-04-26 00:52:00,29.5,23.5,29.54,East,90,0.0,0.0,78,0.00,,,0.00,meteohub,2013-04-26 04:52:00,
2013-04-26 00:57:00,29.5,23.5,29.55,SSE,158,0.0,0.0,78,0.00,,,0.00,meteohub,2013-04-26 04:57:00,
2013-04-26 01:02:00,29.5,23.5,29.55,SW,225,1.0,0.0,78,0.00,,,0.00,meteohub,2013-04-26 05:02:00,
2013-04-26 01:07:00,29.5,23.5,29.55,SE,135,0.0,0.0,78,0.00,,,0.00,meteohub,2013-04-26 05:07:00,
2013-04-26 01:12:00,29.7,23.7,29.55,NE,45,0.0,0.0,78,0.00,,,0.00,meteohub,2013-04-26 05:12:00,
2013-04-26 01:17:00,29.5,23.5,29.55,East,90,0.0,2.0,78,0.00,,,0.00,meteohub,2013-04-26 05:17:00,
2013-04-26 01:22:00,29.7,23.7,29.55,NE,45,0.0,2.0,78,0.00,,,0.00,meteohub,2013-04-26 05:22:00,
2013-04-26 01:27:00,29.8,23.9,29.55,ENE,68,0.0,1.0,78,0.00,,,0.00,meteohub,2013-04-26 05:27:00,
2013-04-26 01:32:00,30.4,24.3,29.55,East,90,0.0,1.0,78,0.00,,,0.00,meteohub,2013-04-26 05:32:00,
2013-04-26 01:37:00,30.7,24.6,29.55,SE,135,0.0,1.0,78,0.00,,,0.00,meteohub,2013-04-26 05:37:00,
2013-04-26 01:42:00,30.9,24.8,29.55,SSE,158,0.0,1.0,78,0.00,,,0.00,meteohub,2013-04-26 05:42:00,
2013-04-26 01:47:00,31.1,25.0,29.55,South,180,0.0,0.0,78,0.00,,,0.00,meteohub,2013-04-26 05:47:00,
2013-04-26 01:52:00,31.1,25.0,29.55,ESE,113,0.0,0.0,78,0.00,,,0.00,meteohub,2013-04-26 05:52:00,
2013-04-26 01:57:00,30.9,24.8,29.55,ENE,68,0.0,0.0,78,0.00,,,0.00,meteohub,2013-04-26 05:57:00,
2013-04-26 02:02:00,31.1,25.0,29.55,NE,45,0.0,0.0,78,0.00,,,0.00,meteohub,2013-04-26 06:02:00,
2013-04-26 02:07:00,31.3,25.2,29.55,SE,135,0.0,0.0,78,0.00,,,0.00,meteohub,2013-04-26 06:07:00,
2013-04-26 02:12:00,31.3,25.2,29.55,East,90,0.0,0.0,78,0.00,,,0.00,meteohub,2013-04-26 06:12:00,
2013-04-26 02:17:00,31.1,25.0,29.55,NE,45,0.0,2.0,78,0.00,,,0.00,meteohub,2013-04-26 06:17:00,
2013-04-26 02:22:00,31.5,25.3,29.55,East,90,0.0,2.0,78,0.00,,,0.00,meteohub,2013-04-26 06:22:00,
2013-04-26 02:27:00,32.0,25.9,29.55,East,90,0.0,2.0,78,0.00,,,0.00,meteohub,2013-04-26 06:27:00,
2013-04-26 02:32:00,32.4,26.2,29.55,ESE,113,0.0,2.0,78,0.00,,,0.00,meteohub,2013-04-26 06:32:00,
2013-04-26 02:37:00,32.5,26.4,29.55,East,90,0.0,0.0,78,0.00,,,0.00,meteohub,2013-04-26 06:37:00,
2013-04-26 02:42:00,32.7,26.6,29.55,ENE,68,0.0,0.0,78,0.00,,,0.00,meteohub,2013-04-26 06:42:00,
2013-04-26 02:47:00,32.9,26.8,29.55,East,90,0.0,0.0,78,0.00,,,0.00,meteohub,2013-04-26 06:47:00,
2013-04-26 02:52:00,32.9,26.4,29.55,ESE,113,0.0,0.0,77,0.00,,,0.00,meteohub,2013-04-26 06:52:00,
2013-04-26 02:57:00,32.9,26.4,29.55,East,90,0.0,0.0,77,0.00,,,0.00,meteohub,2013-04-26 06:57:00,
2013-04-26 03:02:00,33.1,26.6,29.55,ENE,68,0.0,0.0,77,0.00,,,0.00,meteohub,2013-04-26 07:02:00,
2013-04-26 03:07:00,33.1,26.6,29.55,ESE,113,0.0,0.0,77,0.00,,,0.00,meteohub,2013-04-26 07:07:00,
2013-04-26 03:12:00,33.3,26.8,29.56,ESE,113,0.0,0.0,77,0.00,,,0.00,meteohub,2013-04-26 07:12:00,
2013-04-26 03:17:00,33.3,26.8,29.56,ESE,113,0.0,0.0,77,0.00,,,0.00,meteohub,2013-04-26 07:17:00,
2013-04-26 03:22:00,33.3,26.8,29.56,WNW,293,0.0,0.0,77,0.00,,,0.00,meteohub,2013-04-26 07:22:00,
2013-04-26 03:27:00,33.3,26.8,29.56,NE,45,0.0,0.0,77,0.00,,,0.00,meteohub,2013-04-26 07:27:00,
2013-04-26 03:32:00,33.4,27.0,29.56,East,90,0.0,0.0,77,0.00,,,0.00,meteohub,2013-04-26 07:32:00,
2013-04-26 03:37:00,33.6,27.1,29.57,ESE,113,0.0,0.0,77,0.00,,,0.00,meteohub,2013-04-26 07:37:00,
2013-04-26 03:42:00,33.6,27.1,29.57,East,90,0.0,0.0,77,0.00,,,0.00,meteohub,2013-04-26 07:42:00,
2013-04-26 03:47:00,33.6,27.1,29.57,NE,45,0.0,0.0,77,0.00,,,0.00,meteohub,2013-04-26 07:47:00,
2013-04-26 03:52:00,33.6,27.1,29.56,East,90,0.0,0.0,77,0.00,,,0.00,meteohub,2013-04-26 07:52:00,
2013-04-26 03:57:00,33.8,27.3,29.56,ENE,68,0.0,0.0,77,0.00,,,0.00,meteohub,2013-04-26 07:57:00,
2013-04-26 04:02:00,33.8,27.3,29.56,NE,45,0.0,0.0,77,0.00,,,0.00,meteohub,2013-04-26 08:02:00,
2013-04-26 04:08:00,33.8,27.3,29.56,East,90,0.0,0.0,77,0.00,,,0.00,meteohub,2013-04-26 08:08:00,
2013-04-26 04:12:00,33.8,27.3,29.57,East,90,0.0,0.0,77,0.00,,,0.00,meteohub,2013-04-26 08:12:00,
2013-04-26 04:18:00,34.0,27.5,29.57,NE,45,0.0,2.0,77,0.00,,,0.00,meteohub,2013-04-26 08:18:00,
2013-04-26 04:22:00,34.0,27.5,29.57,NNE,23,0.0,2.0,77,0.00,,,0.00,meteohub,2013-04-26 08:22:00,
2013-04-26 04:27:00,34.0,27.1,29.57,NE,45,0.0,2.0,76,0.00,,,0.00,meteohub,2013-04-26 08:27:00,
2013-04-26 04:32:00,33.8,27.0,29.57,NE,45,0.0,2.0,76,0.00,,,0.00,meteohub,2013-04-26 08:32:00,
2013-04-26 04:37:00,33.6,26.8,29.56,NE,45,0.0,1.0,76,0.00,,,0.00,meteohub,2013-04-26 08:37:00,
2013-04-26 04:43:00,33.4,27.0,29.56,NE,45,0.0,1.0,77,0.00,,,0.00,meteohub,2013-04-26 08:43:00,
2013-04-26 04:48:00,33.3,26.6,29.56,NE,45,2.0,2.0,76,0.00,,,0.00,meteohub,2013-04-26 08:48:00,
2013-04-26 04:53:00,33.1,26.4,29.56,NE,45,0.0,1.0,76,0.00,,,0.00,meteohub,2013-04-26 08:53:00,
2013-04-26 04:58:00,32.9,26.2,29.56,NE,45,0.0,2.0,76,0.00,,,0.00,meteohub,2013-04-26 08:58:00,
2013-04-26 05:03:00,33.1,26.6,29.56,NE,45,1.0,2.0,77,0.00,,,0.00,meteohub,2013-04-26 09:03:00,
2013-04-26 05:08:00,33.3,26.8,29.56,East,90,1.0,2.0,77,0.00,,,0.00,meteohub,2013-04-26 09:08:00,
2013-04-26 05:13:00,33.6,27.1,29.56,ENE,68,0.0,2.0,77,0.00,,,0.00,meteohub,2013-04-26 09:13:00,
2013-04-26 05:18:00,33.6,27.1,29.56,SE,135,0.0,2.0,77,0.00,,,0.00,meteohub,2013-04-26 09:18:00,
2013-04-26 05:23:00,33.3,26.6,29.56,ESE,113,0.0,2.0,76,0.00,,,0.00,meteohub,2013-04-26 09:23:00,
2013-04-26 05:28:00,32.7,26.1,29.56,NE,45,2.0,2.0,76,0.00,,,0.00,meteohub,2013-04-26 09:28:00,
2013-04-26 05:33:00,32.5,26.1,29.56,East,90,1.0,2.0,77,0.00,,,0.00,meteohub,2013-04-26 09:33:00,
2013-04-26 05:38:00,32.5,26.1,29.56,ENE,68,0.0,2.0,77,0.00,,,0.00,meteohub,2013-04-26 09:38:00,
2013-04-26 05:43:00,32.5,26.1,29.56,ENE,68,0.0,2.0,77,0.00,,,0.00,meteohub,2013-04-26 09:43:00,
2013-04-26 05:48:00,32.4,25.9,29.56,East,90,0.0,2.0,77,0.00,,,0.00,meteohub,2013-04-26 09:48:00,
2013-04-26 05:53:00,32.4,25.9,29.56,East,90,0.0,0.0,77,0.00,,,0.00,meteohub,2013-04-26 09:53:00,
2013-04-26 05:58:00,32.4,25.9,29.56,SSE,158,0.0,0.0,77,0.00,,,0.00,meteohub,2013-04-26 09:58:00,
2013-04-26 06:03:00,32.2,25.7,29.56,ESE,113,0.0,0.0,77,0.00,,,0.00,meteohub,2013-04-26 10:03:00,
2013-04-26 06:08:00,31.8,25.5,29.56,ESE,113,0.0,0.0,77,0.00,,,0.00,meteohub,2013-04-26 10:08:00,
2013-04-26 06:13:00,31.3,25.0,29.57,ESE,113,0.0,0.0,77,0.00,,,0.00,meteohub,2013-04-26 10:13:00,
2013-04-26 06:18:00,30.9,24.6,29.57,East,90,0.0,0.0,77,0.00,,,0.00,meteohub,2013-04-26 10:18:00,
2013-04-26 06:23:00,30.7,24.6,29.57,ESE,113,0.0,0.0,78,0.00,,,0.00,meteohub,2013-04-26 10:23:00,
2013-04-26 06:28:00,30.6,24.4,29.57,ENE,68,0.0,1.0,78,0.00,,,0.00,meteohub,2013-04-26 10:28:00,
2013-04-26 06:33:00,30.6,24.4,29.57,SSW,203,0.0,1.0,78,0.00,,,0.00,meteohub,2013-04-26 10:33:00,
2013-04-26 06:38:00,30.2,24.3,29.57,SSE,158,0.0,1.0,78,0.00,,,0.00,meteohub,2013-04-26 10:38:00,
2013-04-26 06:43:00,30.0,24.1,29.57,SSE,158,0.0,0.0,78,0.00,,,0.00,meteohub,2013-04-26 10:43:00,
2013-04-26 06:48:00,30.0,24.1,29.57,SSW,203,0.0,0.0,78,0.00,,,0.00,meteohub,2013-04-26 10:48:00,
2013-04-26 06:53:00,30.0,24.1,29.57,SSW,203,0.0,0.0,78,0.00,,,0.00,meteohub,2013-04-26 10:53:00,
2013-04-26 06:58:00,29.8,23.9,29.57,South,180,0.0,0.0,78,0.00,,,0.00,meteohub,2013-04-26 10:58:00,
2013-04-26 07:03:00,29.8,23.9,29.57,East,90,0.0,0.0,78,0.00,,,0.00,meteohub,2013-04-26 11:03:00,
2013-04-26 07:08:00,29.8,23.9,29.57,ENE,68,0.0,1.0,78,0.00,,,0.00,meteohub,2013-04-26 11:08:00,
2013-04-26 07:13:00,29.8,23.9,29.57,SW,225,0.0,1.0,78,0.00,,,0.00,meteohub,2013-04-26 11:13:00,
2013-04-26 07:18:00,30.0,24.1,29.57,West,270,0.0,1.0,78,0.00,,,0.00,meteohub,2013-04-26 11:18:00,
2013-04-26 07:23:00,30.0,24.1,29.57,ESE,113,0.0,0.0,78,0.00,,,0.00,meteohub,2013-04-26 11:23:00,
2013-04-26 07:28:00,30.2,24.3,29.57,NE,45,0.0,0.0,78,0.00,,,0.00,meteohub,2013-04-26 11:28:00,
2013-04-26 07:33:00,30.4,24.3,29.58,SW,225,0.0,0.0,78,0.00,,,0.00,meteohub,2013-04-26 11:33:00,
2013-04-26 07:38:00,30.6,24.4,29.58,NW,315,0.0,0.0,78,0.00,,,0.00,meteohub,2013-04-26 11:38:00,
2013-04-26 07:43:00,30.6,24.4,29.58,SSE,158,0.0,0.0,78,0.00,,,0.00,meteohub,2013-04-26 11:43:00,
2013-04-26 07:48:00,30.9,24.8,29.58,ENE,68,0.0,0.0,78,0.00,,,0.00,meteohub,2013-04-26 11:48:00,
2013-04-26 07:53:00,31.3,25.2,29.58,East,90,0.0,0.0,78,0.00,,,0.00,meteohub,2013-04-26 11:53:00,
2013-04-26 07:59:00,31.8,25.5,29.58,SSW,203,0.0,0.0,77,0.00,,,0.00,meteohub,2013-04-26 11:59:00,
2013-04-26 08:04:00,32.2,26.1,29.58,SW,225,2.0,0.0,78,0.00,,,0.00,meteohub,2013-04-26 12:04:00,
2013-04-26 08:09:00,32.2,25.7,29.58,East,90,0.0,0.0,77,0.00,,,0.00,meteohub,2013-04-26 12:09:00,
2013-04-26 08:14:00,32.5,26.1,29.58,SSE,158,0.0,2.0,77,0.00,,,0.00,meteohub,2013-04-26 12:14:00,
2013-04-26 08:19:00,32.9,26.4,29.58,ESE,113,0.0,2.0,77,0.00,,,0.00,meteohub,2013-04-26 12:19:00,
2013-04-26 08:24:00,33.4,27.0,29.58,SSE,158,0.0,0.0,77,0.00,,,0.00,meteohub,2013-04-26 12:24:00,
2013-04-26 08:29:00,34.3,27.9,29.58,SSE,158,0.0,0.0,77,0.00,,,0.00,meteohub,2013-04-26 12:29:00,
2013-04-26 08:34:00,34.3,27.9,29.59,South,180,0.0,0.0,77,0.00,,,0.00,meteohub,2013-04-26 12:34:00,
2013-04-26 08:39:00,35.2,28.8,29.59,South,180,2.0,0.0,77,0.00,,,0.00,meteohub,2013-04-26 12:39:00,
2013-04-26 08:44:00,35.6,29.1,29.59,SSE,158,0.0,2.0,77,0.00,,,0.00,meteohub,2013-04-26 12:44:00,
2013-04-26 08:49:00,36.3,29.8,29.59,South,180,1.0,2.0,77,0.00,,,0.00,meteohub,2013-04-26 12:49:00,
2013-04-26 08:54:00,36.9,30.4,29.60,SW,225,2.0,2.0,77,0.00,,,0.00,meteohub,2013-04-26 12:54:00,
2013-04-26 08:59:00,37.6,31.1,29.60,SW,225,2.0,2.0,77,0.00,,,0.00,meteohub,2013-04-26 12:59:00,
2013-04-26 09:04:00,37.9,31.1,29.60,SSE,158,3.0,3.0,76,0.00,,,0.00,meteohub,2013-04-26 13:04:00,
2013-04-26 09:09:00,38.7,31.8,29.60,SSE,158,2.0,3.0,76,0.00,,,0.00,meteohub,2013-04-26 13:09:00,
2013-04-26 09:14:00,39.2,32.0,29.60,North,0,2.0,4.0,75,0.00,,,0.00,meteohub,2013-04-26 13:14:00,
2013-04-26 09:19:00,40.1,32.5,29.60,SSW,203,3.0,4.0,74,0.00,,,0.00,meteohub,2013-04-26 13:19:00,
2013-04-26 09:24:00,40.8,32.5,29.60,SSE,158,3.0,5.0,72,0.00,,,0.00,meteohub,2013-04-26 13:24:00,
2013-04-26 09:29:00,41.5,33.3,29.60,SSW,203,3.0,5.0,72,0.00,,,0.00,meteohub,2013-04-26 13:29:00,
2013-04-26 09:34:00,42.3,32.9,29.60,SSE,158,3.0,5.0,69,0.00,,,0.00,meteohub,2013-04-26 13:34:00,
2013-04-26 09:39:00,42.8,32.9,29.60,South,180,3.0,5.0,68,0.00,,,0.00,meteohub,2013-04-26 13:39:00,
2013-04-26 09:44:00,43.0,32.7,29.60,SSW,203,3.0,4.0,67,0.00,,,0.00,meteohub,2013-04-26 13:44:00,
2013-04-26 09:49:00,43.5,32.9,29.60,East,90,4.0,4.0,66,0.00,,,0.00,meteohub,2013-04-26 13:49:00,
2013-04-26 09:54:00,43.7,32.7,29.59,ESE,113,2.0,5.0,65,0.00,,,0.00,meteohub,2013-04-26 13:54:00,
2013-04-26 09:59:00,44.6,33.3,29.59,SW,225,4.0,5.0,64,0.00,,,0.00,meteohub,2013-04-26 13:59:00,
2013-04-26 10:04:00,44.8,32.9,29.59,SSE,158,7.0,7.0,63,0.00,,,0.00,meteohub,2013-04-26 14:04:00,
2013-04-26 10:09:00,45.3,33.1,29.59,South,180,9.0,9.0,62,0.00,,,0.00,meteohub,2013-04-26 14:09:00,
2013-04-26 10:14:00,45.7,33.1,29.58,SSE,158,11.0,21.0,61,0.00,,,0.00,meteohub,2013-04-26 14:14:00,
2013-04-26 10:19:00,46.0,32.9,29.58,SSW,203,11.0,21.0,60,0.00,,,0.00,meteohub,2013-04-26 14:19:00,
2013-04-26 10:24:00,46.2,32.7,29.58,SW,225,8.0,21.0,59,0.00,,,0.00,meteohub,2013-04-26 14:24:00,
2013-04-26 10:29:00,46.6,32.5,29.58,SSW,203,7.0,21.0,58,0.00,,,0.00,meteohub,2013-04-26 14:29:00,
2013-04-26 10:34:00,46.9,32.9,29.58,SSE,158,7.0,12.0,58,0.00,,,0.00,meteohub,2013-04-26 14:34:00,
2013-04-26 10:39:00,47.3,33.3,29.58,SSE,158,6.0,12.0,58,0.00,,,0.00,meteohub,2013-04-26 14:39:00,
2013-04-26 10:44:00,47.8,33.3,29.58,SSW,203,8.0,9.0,57,0.00,,,0.00,meteohub,2013-04-26 14:44:00,
2013-04-26 10:49:00,48.0,33.1,29.58,SSE,158,17.0,17.0,56,0.00,,,0.00,meteohub,2013-04-26 14:49:00,
2013-04-26 10:54:00,48.4,32.9,29.58,South,180,7.0,17.0,55,0.00,,,0.00,meteohub,2013-04-26 14:54:00,
2013-04-26 10:59:00,48.7,32.9,29.58,SSW,203,10.0,17.0,54,0.00,,,0.00,meteohub,2013-04-26 14:59:00,
2013-04-26 11:04:00,48.9,32.5,29.58,SW,225,9.0,17.0,53,0.00,,,0.00,meteohub,2013-04-26 15:04:00,
2013-04-26 11:09:00,49.1,32.7,29.58,WSW,248,11.0,17.0,53,0.00,,,0.00,meteohub,2013-04-26 15:09:00,
2013-04-26 11:14:00,49.5,32.5,29.59,SW,225,5.0,11.0,52,0.00,,,0.00,meteohub,2013-04-26 15:14:00,
2013-04-26 11:19:00,49.6,33.3,29.59,SW,225,10.0,11.0,53,0.00,,,0.00,meteohub,2013-04-26 15:19:00,
2013-04-26 11:24:00,49.5,32.5,29.59,SSW,203,9.0,14.0,52,0.00,,,0.00,meteohub,2013-04-26 15:24:00,
2013-04-26 11:29:00,49.3,32.4,29.59,SSW,203,9.0,14.0,52,0.00,,,0.00,meteohub,2013-04-26 15:29:00,
2013-04-26 11:34:00,49.1,32.2,29.59,SSW,203,8.0,14.0,52,0.00,,,0.00,meteohub,2013-04-26 15:34:00,
2013-04-26 11:39:00,49.1,31.8,29.59,South,180,11.0,14.0,51,0.00,,,0.00,meteohub,2013-04-26 15:39:00,
2013-04-26 11:44:00,48.7,31.5,29.59,SSW,203,10.0,14.0,51,0.00,,,0.00,meteohub,2013-04-26 15:44:00,
2013-04-26 11:49:00,48.7,31.5,29.59,South,180,10.0,14.0,51,0.00,,,0.00,meteohub,2013-04-26 15:49:00,
2013-04-26 11:54:00,48.6,31.8,29.59,South,180,13.0,14.0,52,0.00,,,0.00,meteohub,2013-04-26 15:54:00,
2013-04-26 12:00:00,47.8,32.0,29.59,SW,225,14.0,14.0,54,0.00,,,0.00,meteohub,2013-04-26 16:00:00,
2013-04-26 12:05:00,47.1,33.1,29.59,SSE,158,10.0,19.0,58,0.00,,,0.00,meteohub,2013-04-26 16:05:00,
2013-04-26 12:10:00,46.0,34.2,29.59,SSW,203,10.0,19.0,63,0.00,,,0.00,meteohub,2013-04-26 16:10:00,
2013-04-26 12:15:00,45.1,34.2,29.59,WSW,248,13.0,19.0,65,0.00,,,0.00,meteohub,2013-04-26 16:15:00,
2013-04-26 12:20:00,45.0,34.7,29.59,South,180,6.0,19.0,67,0.00,,,0.00,meteohub,2013-04-26 16:20:00,
2013-04-26 12:25:00,44.8,34.5,29.59,SE,135,6.0,19.0,67,0.00,,,0.00,meteohub,2013-04-26 16:25:00,
2013-04-26 12:30:00,44.4,34.2,29.59,SSE,158,3.0,13.0,67,0.00,,,0.00,meteohub,2013-04-26 16:30:00,
2013-04-26 12:35:00,44.4,34.5,29.58,SSE,158,3.0,9.0,68,0.00,,,0.00,meteohub,2013-04-26 16:35:00,
2013-04-26 12:40:00,44.8,34.9,29.58,SSE,158,4.0,9.0,68,0.00,,,0.00,meteohub,2013-04-26 16:40:00,
2013-04-26 12:45:00,44.8,34.9,29.58,SSE,158,3.0,6.0,68,0.00,,,0.00,meteohub,2013-04-26 16:45:00,
2013-04-26 12:50:00,45.3,35.1,29.58,ESE,113,3.0,6.0,67,0.00,,,0.00,meteohub,2013-04-26 16:50:00,
2013-04-26 12:55:00,45.9,35.6,29.56,ESE,113,4.0,8.0,67,0.00,,,0.00,meteohub,2013-04-26 16:55:00,
2013-04-26 13:01:00,46.6,35.4,29.56,SE,135,4.0,8.0,65,0.00,,,0.00,meteohub,2013-04-26 17:01:00,
2013-04-26 13:06:00,47.3,35.8,29.56,ESE,113,7.0,8.0,64,0.00,,,0.00,meteohub,2013-04-26 17:06:00,
2013-04-26 13:11:00,47.7,35.6,29.56,ESE,113,5.0,9.0,63,0.00,,,0.00,meteohub,2013-04-26 17:11:00,
2013-04-26 13:16:00,48.0,35.6,29.55,SSE,158,6.0,10.0,62,0.00,,,0.00,meteohub,2013-04-26 17:16:00,
2013-04-26 13:21:00,48.0,35.2,29.55,SSW,203,5.0,10.0,61,0.00,,,0.00,meteohub,2013-04-26 17:21:00,
2013-04-26 13:26:00,48.2,35.8,29.55,ESE,113,5.0,10.0,62,0.00,,,0.00,meteohub,2013-04-26 17:26:00,
2013-04-26 13:31:00,48.4,36.0,29.55,ESE,113,6.0,10.0,62,0.00,,,0.00,meteohub,2013-04-26 17:31:00,
2013-04-26 13:36:00,48.6,35.8,29.54,ESE,113,8.0,8.0,61,0.00,,,0.00,meteohub,2013-04-26 17:36:00,
2013-04-26 13:41:00,48.7,35.1,29.54,SW,225,8.0,8.0,59,0.00,,,0.00,meteohub,2013-04-26 17:41:00,
2013-04-26 13:46:00,48.9,34.9,29.54,SSW,203,4.0,12.0,58,0.00,,,0.00,meteohub,2013-04-26 17:46:00,
2013-04-26 13:51:00,49.3,35.1,29.54,SSE,158,3.0,12.0,58,0.00,,,0.00,meteohub,2013-04-26 17:51:00,
2013-04-26 13:56:00,49.8,35.2,29.52,SE,135,6.0,12.0,57,0.00,,,0.00,meteohub,2013-04-26 17:56:00,
2013-04-26 14:01:00,50.4,35.2,29.52,ENE,68,6.0,12.0,56,0.00,,,0.00,meteohub,2013-04-26 18:01:00,
2013-04-26 14:06:00,50.5,35.1,29.52,SE,135,3.0,9.0,55,0.00,,,0.00,meteohub,2013-04-26 18:06:00,
2013-04-26 14:11:00,50.9,35.2,29.52,SSE,158,2.0,9.0,55,0.00,,,0.00,meteohub,2013-04-26 18:11:00,
2013-04-26 14:16:00,51.6,35.6,29.52,SSW,203,7.0,9.0,54,0.00,,,0.00,meteohub,2013-04-26 18:16:00,
2013-04-26 14:21:00,51.6,35.1,29.52,SSW,203,7.0,9.0,53,0.00,,,0.00,meteohub,2013-04-26 18:21:00,
2013-04-26 14:26:00,51.6,35.1,29.52,ENE,68,8.0,8.0,53,0.00,,,0.00,meteohub,2013-04-26 18:26:00,
2013-04-26 14:31:00,52.0,35.8,29.52,ESE,113,6.0,7.0,54,0.00,,,0.00,meteohub,2013-04-26 18:31:00,
2013-04-26 14:36:00,52.9,35.8,29.50,SSE,158,10.0,10.0,52,0.00,,,0.00,meteohub,2013-04-26 18:36:00,
2013-04-26 14:42:00,53.4,36.3,29.50,SSW,203,6.0,8.0,52,0.00,,,0.00,meteohub,2013-04-26 18:42:00,
2013-04-26 14:47:00,54.0,36.3,29.50,SW,225,10.0,10.0,51,0.00,,,0.00,meteohub,2013-04-26 18:47:00,
2013-04-26 14:52:00,54.3,36.5,29.50,SW,225,9.0,10.0,51,0.00,,,0.00,meteohub,2013-04-26 18:52:00,
2013-04-26 14:57:00,54.9,37.0,29.49,SSE,158,5.0,10.0,51,0.00,,,0.00,meteohub,2013-04-26 18:57:00,
2013-04-26 15:02:00,54.9,36.1,29.49,ESE,113,8.0,10.0,49,0.00,,,0.00,meteohub,2013-04-26 19:02:00,
2013-04-26 15:07:00,55.0,36.1,29.49,West,270,9.0,9.0,49,0.00,,,0.00,meteohub,2013-04-26 19:07:00,
2013-04-26 15:12:00,55.0,36.1,29.49,SSW,203,6.0,9.0,49,0.00,,,0.00,meteohub,2013-04-26 19:12:00,
2013-04-26 15:17:00,55.8,36.9,29.49,SSW,203,7.0,9.0,49,0.00,,,0.00,meteohub,2013-04-26 19:17:00,
2013-04-26 15:22:00,56.1,37.2,29.49,SE,135,3.0,9.0,49,0.00,,,0.00,meteohub,2013-04-26 19:22:00,
2013-04-26 15:27:00,56.3,36.9,29.49,SE,135,13.0,13.0,48,0.00,,,0.00,meteohub,2013-04-26 19:27:00,
2013-04-26 15:32:00,56.3,36.3,29.49,SSE,158,4.0,9.0,47,0.00,,,0.00,meteohub,2013-04-26 19:32:00,
2013-04-26 15:37:00,56.7,36.7,29.47,SSW,203,9.0,13.0,47,0.00,,,0.00,meteohub,2013-04-26 19:37:00,
2013-04-26 15:42:00,57.0,37.0,29.47,SSW,203,6.0,13.0,47,0.00,,,0.00,meteohub,2013-04-26 19:42:00,
2013-04-26 15:47:00,58.1,37.9,29.47,SW,225,9.0,11.0,47,0.00,,,0.00,meteohub,2013-04-26 19:47:00,
2013-04-26 15:52:00,59.0,38.3,29.47,South,180,8.0,11.0,46,0.00,,,0.00,meteohub,2013-04-26 19:52:00,
2013-04-26 15:57:00,59.2,38.5,29.47,South,180,9.0,11.0,46,0.00,,,0.00,meteohub,2013-04-26 19:57:00,
2013-04-26 16:02:00,59.4,38.7,29.47,SSE,158,4.0,11.0,46,0.00,,,0.00,meteohub,2013-04-26 20:02:00,
2013-04-26 16:07:00,59.7,38.3,29.47,ESE,113,8.0,10.0,45,0.00,,,0.00,meteohub,2013-04-26 20:07:00,
2013-04-26 16:12:00,59.7,38.3,29.47,SSE,158,10.0,10.0,45,0.00,,,0.00,meteohub,2013-04-26 20:12:00,
2013-04-26 16:17:00,59.5,38.7,29.45,SSE,158,6.0,12.0,46,0.00,,,0.00,meteohub,2013-04-26 20:17:00,
2013-04-26 16:22:00,59.7,38.3,29.45,SSE,158,5.0,12.0,45,0.00,,,0.00,meteohub,2013-04-26 20:22:00,
2013-04-26 16:27:00,60.4,39.0,29.45,SSE,158,8.0,12.0,45,0.00,,,0.00,meteohub,2013-04-26 20:27:00,
2013-04-26 16:32:00,60.4,39.0,29.45,SSE,158,10.0,12.0,45,0.00,,,0.00,meteohub,2013-04-26 20:32:00,
2013-04-26 16:37:00,60.1,38.1,29.44,East,90,5.0,10.0,44,0.00,,,0.00,meteohub,2013-04-26 20:37:00,
2013-04-26 16:42:00,60.3,38.8,29.44,SSE,158,6.0,10.0,45,0.00,,,0.00,meteohub,2013-04-26 20:42:00,
2013-04-26 16:47:00,60.3,38.8,29.44,SSE,158,5.0,10.0,45,0.00,,,0.00,meteohub,2013-04-26 20:47:00,
2013-04-26 16:52:00,60.6,39.2,29.44,SSW,203,7.0,10.0,45,0.00,,,0.00,meteohub,2013-04-26 20:52:00,
2013-04-26 16:57:00,60.6,38.7,29.44,NNE,23,8.0,10.0,44,0.00,,,0.00,meteohub,2013-04-26 20:57:00,
2013-04-26 17:02:00,60.6,37.9,29.44,SW,225,9.0,10.0,43,0.00,,,0.00,meteohub,2013-04-26 21:02:00,
2013-04-26 17:07:00,60.4,37.8,29.44,SSE,158,6.0,11.0,43,0.00,,,0.00,meteohub,2013-04-26 21:07:00,
2013-04-26 17:12:00,60.1,38.1,29.44,SSW,203,6.0,11.0,44,0.00,,,0.00,meteohub,2013-04-26 21:12:00,
2013-04-26 17:17:00,60.3,37.8,29.42,SW,225,7.0,14.0,43,0.00,,,0.00,meteohub,2013-04-26 21:17:00,
2013-04-26 17:22:00,60.3,37.8,29.42,ESE,113,5.0,14.0,43,0.00,,,0.00,meteohub,2013-04-26 21:22:00,
2013-04-26 17:27:00,60.6,37.9,29.42,SE,135,7.0,11.0,43,0.00,,,0.00,meteohub,2013-04-26 21:27:00,
2013-04-26 17:32:00,60.8,38.1,29.42,SSW,203,7.0,11.0,43,0.00,,,0.00,meteohub,2013-04-26 21:32:00,
2013-04-26 17:37:00,60.4,37.8,29.43,SW,225,5.0,15.0,43,0.00,,,0.00,meteohub,2013-04-26 21:37:00,
2013-04-26 17:42:00,60.3,37.0,29.43,SE,135,8.0,15.0,42,0.00,,,0.00,meteohub,2013-04-26 21:42:00,
2013-04-26 17:47:00,60.4,37.2,29.43,South,180,9.0,11.0,42,0.00,,,0.00,meteohub,2013-04-26 21:47:00,
2013-04-26 17:52:00,60.6,36.9,29.43,SW,225,10.0,11.0,41,0.00,,,0.00,meteohub,2013-04-26 21:52:00,
2013-04-26 17:57:00,61.7,37.2,29.43,SSW,203,10.0,12.0,40,0.00,,,0.00,meteohub,2013-04-26 21:57:00,
2013-04-26 18:02:00,61.7,37.2,29.43,SW,225,11.0,12.0,40,0.00,,,0.00,meteohub,2013-04-26 22:02:00,
2013-04-26 18:07:00,61.7,37.8,29.43,SW,225,6.0,12.0,41,0.00,,,0.00,meteohub,2013-04-26 22:07:00,
2013-04-26 18:12:00,61.7,37.8,29.43,SSE,158,6.0,12.0,41,0.00,,,0.00,meteohub,2013-04-26 22:12:00,
2013-04-26 18:17:00,61.9,37.2,29.42,SE,135,6.0,11.0,40,0.00,,,0.00,meteohub,2013-04-26 22:17:00,
2013-04-26 18:22:00,62.1,37.4,29.42,SSE,158,8.0,11.0,40,0.00,,,0.00,meteohub,2013-04-26 22:22:00,
2013-04-26 18:27:00,61.7,37.2,29.42,SSW,203,11.0,12.0,40,0.00,,,0.00,meteohub,2013-04-26 22:27:00,
2013-04-26 18:32:00,61.7,37.2,29.42,SW,225,6.0,12.0,40,0.00,,,0.00,meteohub,2013-04-26 22:32:00,
2013-04-26 18:37:00,61.5,37.0,29.42,South,180,9.0,12.0,40,0.00,,,0.00,meteohub,2013-04-26 22:37:00,
2013-04-26 18:42:00,61.3,36.9,29.42,SSW,203,9.0,12.0,40,0.00,,,0.00,meteohub,2013-04-26 22:42:00,
2013-04-26 18:47:00,61.3,36.9,29.42,SSE,158,10.0,10.0,40,0.00,,,0.00,meteohub,2013-04-26 22:47:00,
2013-04-26 18:52:00,61.3,36.9,29.42,SSE,158,6.0,10.0,40,0.00,,,0.00,meteohub,2013-04-26 22:52:00,
2013-04-26 18:57:00,61.2,36.7,29.42,SSW,203,7.0,14.0,40,0.00,,,0.00,meteohub,2013-04-26 22:57:00,
2013-04-26 19:02:00,61.2,36.7,29.42,South,180,7.0,14.0,40,0.00,,,0.00,meteohub,2013-04-26 23:02:00,
2013-04-26 19:07:00,61.0,36.5,29.42,SSW,203,5.0,9.0,40,0.00,,,0.00,meteohub,2013-04-26 23:07:00,
2013-04-26 19:12:00,60.8,36.9,29.42,SSE,158,6.0,9.0,41,0.00,,,0.00,meteohub,2013-04-26 23:12:00,
2013-04-26 19:17:00,60.6,36.9,29.42,WNW,293,4.0,10.0,41,0.00,,,0.00,meteohub,2013-04-26 23:17:00,
2013-04-26 19:22:00,60.4,36.7,29.42,South,180,6.0,10.0,41,0.00,,,0.00,meteohub,2013-04-26 23:22:00,
2013-04-26 19:27:00,60.1,36.3,29.42,SSW,203,5.0,8.0,41,0.00,,,0.00,meteohub,2013-04-26 23:27:00,
2013-04-26 19:32:00,60.1,36.3,29.42,SSE,158,3.0,8.0,41,0.00,,,0.00,meteohub,2013-04-26 23:32:00,
2013-04-26 19:37:00,59.9,36.7,29.42,SSE,158,4.0,7.0,42,0.00,,,0.00,meteohub,2013-04-26 23:37:00,
2013-04-26 19:42:00,59.9,36.7,29.42,SSE,158,3.0,7.0,42,0.00,,,0.00,meteohub,2013-04-26 23:42:00,
2013-04-26 19:47:00,59.7,36.5,29.42,WSW,248,3.0,4.0,42,0.00,,,0.00,meteohub,2013-04-26 23:47:00,
2013-04-26 19:52:00,59.0,36.5,29.42,NW,315,5.0,5.0,43,0.00,,,0.00,meteohub,2013-04-26 23:52:00,
2013-04-26 19:54:00,57.6,35.8,29.43,North,0,3.0,5.0,44,0.00,,,0.00,meteohub,2013-04-26 23:54:00,
2013-04-26 20:05:00,55.2,34.9,29.43,NNW,338,3.0,5.0,46,0.00,,,0.00,meteohub,2013-04-27 00:05:00,
2013-04-26 20:11:00,53.2,34.5,29.43,NNW,338,1.0,6.0,49,0.00,,,0.00,meteohub,2013-04-27 00:11:00,
2013-04-26 20:16:00,52.3,34.2,29.44,NE,45,0.0,5.0,50,0.00,,,0.00,meteohub,2013-04-27 00:16:00,
2013-04-26 20:21:00,51.8,34.2,29.44,SW,225,0.0,5.0,51,0.00,,,0.00,meteohub,2013-04-27 00:21:00,
2013-04-26 20:26:00,51.3,34.2,29.44,North,0,3.0,3.0,52,0.00,,,0.00,meteohub,2013-04-27 00:26:00,
2013-04-26 20:31:00,51.1,34.5,29.44,North,0,3.0,3.0,53,0.00,,,0.00,meteohub,2013-04-27 00:31:00,
2013-04-26 20:36:00,50.9,34.9,29.44,North,0,2.0,3.0,54,0.00,,,0.00,meteohub,2013-04-27 00:36:00,
2013-04-26 20:41:00,50.7,34.7,29.44,North,0,2.0,3.0,54,0.00,,,0.00,meteohub,2013-04-27 00:41:00,
2013-04-26 20:46:00,50.5,34.5,29.44,NNE,23,0.0,3.0,54,0.00,,,0.00,meteohub,2013-04-27 00:46:00,
2013-04-26 20:51:00,50.7,35.1,29.44,NNE,23,3.0,3.0,55,0.00,,,0.00,meteohub,2013-04-27 00:51:00,
2013-04-26 20:56:00,51.1,36.0,29.43,NNE,23,2.0,3.0,56,0.00,,,0.00,meteohub,2013-04-27 00:56:00,
2013-04-26 21:01:00,51.4,36.3,29.43,SSE,158,0.0,3.0,56,0.00,,,0.00,meteohub,2013-04-27 01:01:00,
2013-04-26 21:06:00,51.3,36.5,29.43,SE,135,0.0,3.0,57,0.00,,,0.00,meteohub,2013-04-27 01:06:00,
2013-04-26 21:11:00,51.4,36.7,29.43,SSW,203,0.0,3.0,57,0.00,,,0.00,meteohub,2013-04-27 01:11:00,
2013-04-26 21:16:00,51.6,36.9,29.44,SW,225,2.0,3.0,57,0.00,,,0.00,meteohub,2013-04-27 01:16:00,
2013-04-26 21:21:00,52.5,37.2,29.44,SE,135,2.0,3.0,56,0.00,,,0.00,meteohub,2013-04-27 01:21:00,
2013-04-26 21:26:00,53.1,37.8,29.44,ESE,113,2.0,4.0,56,0.00,,,0.00,meteohub,2013-04-27 01:26:00,
2013-04-26 21:31:00,53.4,37.6,29.44,South,180,0.0,4.0,55,0.00,,,0.00,meteohub,2013-04-27 01:31:00,
2013-04-26 21:36:00,54.1,38.3,29.44,SSW,203,4.0,4.0,55,0.00,,,0.00,meteohub,2013-04-27 01:36:00,
2013-04-26 21:41:00,55.2,38.3,29.44,SW,225,5.0,5.0,53,0.00,,,0.00,meteohub,2013-04-27 01:41:00,
2013-04-26 21:46:00,56.3,39.4,29.44,SE,135,3.0,10.0,53,0.00,,,0.00,meteohub,2013-04-27 01:46:00,
2013-04-26 21:52:00,57.0,39.6,29.44,SW,225,13.0,13.0,52,0.00,,,0.00,meteohub,2013-04-27 01:52:00,
2013-04-26 21:57:00,57.6,39.6,29.44,SSE,158,10.0,13.0,51,0.00,,,0.00,meteohub,2013-04-27 01:57:00,
2013-04-26 22:02:00,58.1,40.1,29.44,SSW,203,7.0,13.0,51,0.00,,,0.00,meteohub,2013-04-27 02:02:00,
2013-04-26 22:07:00,58.1,40.1,29.44,SSW,203,6.0,13.0,51,0.00,,,0.00,meteohub,2013-04-27 02:07:00,
2013-04-26 22:12:00,58.1,40.1,29.44,SW,225,9.0,13.0,51,0.00,,,0.00,meteohub,2013-04-27 02:12:00,
2013-04-26 22:17:00,58.1,40.1,29.43,SW,225,9.0,9.0,51,0.00,,,0.00,meteohub,2013-04-27 02:17:00,
2013-04-26 22:22:00,58.1,40.1,29.43,South,180,9.0,9.0,51,0.00,,,0.00,meteohub,2013-04-27 02:22:00,
2013-04-26 22:27:00,58.3,40.3,29.43,SSE,158,11.0,11.0,51,0.00,,,0.00,meteohub,2013-04-27 02:27:00,
2013-04-26 22:32:00,58.3,40.3,29.43,SSW,203,13.0,13.0,51,0.00,,,0.00,meteohub,2013-04-27 02:32:00,
2013-04-26 22:37:00,58.3,40.3,29.44,SW,225,12.0,12.0,51,0.00,,,0.00,meteohub,2013-04-27 02:37:00,
2013-04-26 22:42:00,58.5,40.5,29.44,SW,225,7.0,12.0,51,0.00,,,0.00,meteohub,2013-04-27 02:42:00,
2013-04-26 22:47:00,58.1,40.6,29.44,WSW,248,9.0,13.0,52,0.00,,,0.00,meteohub,2013-04-27 02:47:00,
2013-04-26 22:52:00,58.1,40.6,29.44,SSW,203,6.0,13.0,52,0.00,,,0.00,meteohub,2013-04-27 02:52:00,
2013-04-26 22:57:00,58.1,40.6,29.44,SW,225,6.0,13.0,52,0.00,,,0.00,meteohub,2013-04-27 02:57:00,
2013-04-26 23:02:00,58.1,40.6,29.44,WSW,248,8.0,13.0,52,0.00,,,0.00,meteohub,2013-04-27 03:02:00,
2013-04-26 23:07:00,58.1,41.0,29.44,SW,225,8.0,12.0,53,0.00,,,0.00,meteohub,2013-04-27 03:07:00,
2013-04-26 23:12:00,57.9,40.8,29.44,South,180,8.0,12.0,53,0.00,,,0.00,meteohub,2013-04-27 03:12:00,
2013-04-26 23:17:00,57.9,40.8,29.43,SSE,158,6.0,12.0,53,0.00,,,0.00,meteohub,2013-04-27 03:17:00,
2013-04-26 23:22:00,57.7,40.6,29.43,WNW,293,6.0,12.0,53,0.00,,,0.00,meteohub,2013-04-27 03:22:00,
2013-04-26 23:27:00,57.7,41.2,29.43,SW,225,10.0,10.0,54,0.00,,,0.00,meteohub,2013-04-27 03:27:00,
2013-04-26 23:32:00,57.6,41.0,29.43,WSW,248,16.0,16.0,54,0.00,,,0.00,meteohub,2013-04-27 03:32:00,
2013-04-26 23:37:00,57.7,41.2,29.43,SSE,158,8.0,10.0,54,0.00,,,0.00,meteohub,2013-04-27 03:37:00,
2013-04-26 23:42:00,57.6,41.5,29.43,SSW,203,8.0,10.0,55,0.00,,,0.00,meteohub,2013-04-27 03:42:00,
2013-04-26 23:47:00,57.4,41.9,29.43,South,180,9.0,16.0,56,0.00,,,0.00,meteohub,2013-04-27 03:47:00,
2013-04-26 23:52:00,57.2,41.7,29.43,SSW,203,6.0,16.0,56,0.00,,,0.00,meteohub,2013-04-27 03:52:00,
2013-04-26 23:57:00,56.8,41.7,29.43,SW,225,10.0,10.0,57,0.00,,,0.00,meteohub,2013-04-27 03:57:00,